User: anonymous   Login
Location: Dürabuch
(48.2640°N, 11.2185°E)
Time: 19:56:25
(UTC+00:00)
Language:

COBE Rocket - Orbit

View from above orbital plane
View from above orbital plane
View from above satellite
View from above satellite

Ground track
Ground track

The orbit data is extracted from the following two-line orbital elements,

1 20323U 89089B   24197.57276170  .00000654  00000-0  17450-3 0  9997
2 20323  97.1161 127.8733 0069144 221.8571 137.7328 14.49582283808461
Epoch (UTC): 15 July 2024 13:44:46
Eccentricity: 0.0069144
inclination: 97.1161°
perigee height: 678 km
apogee height: 776 km
right ascension of ascending node: 127.8733°
argument of perigee: 221.8571°
revolutions per day: 14.49582283
mean anomaly at epoch: 137.7328°
orbit number at epoch: 80846

The dashed part of the orbit path shows where the satellite is in the earth's shadow,  

DLR